nws-alerts: Checking more than four warning/county codes can delay the loading of your pages. You should use a cron job to get the data.
EllijayWeather Station Historical Data
Daily Summary for November 7, 2018 Units:  English    Metric   Both
Daily Weekly Monthly Yearly Custom
  High: Low: Average:
Temperature: 71.2 °F 38.8 °F 52.3 °F
Dew Point: 56.5 °F 25.0 °F 36 °F
Humidity: 77% 42% 54%
Wind Speed: 0.0mph 0.0mph 0mph
Wind Gust: 0.0mph - -
Wind- - North
Pressure: 30.17 in 30.04 in -
Precipitation: 0.09 in    
Historical Graphs
 
 
Tabular Data for November 7, 2018
Time Temperature Dew Point Pressure Wind Wind Speed Wind Gust Humidity Rainfall Rate (Hourly) solar
00:04 46.2 °F 30.9 °F 30.10 in Calm     55% 0.00 in meteobridge W/m2
00:09 46.2 °F 30.9 °F 30.10 in Calm     55% 0.00 in meteobridge W/m2
00:14 46.2 °F 30.9 °F 30.10 in Calm     55% 0.00 in meteobridge W/m2
00:19 46.0 °F 30.7 °F 30.10 in Calm     55% 0.00 in meteobridge W/m2
00:24 46.0 °F 30.7 °F 30.10 in Calm     55% 0.00 in meteobridge W/m2
00:29 46.0 °F 30.4 °F 30.10 in Calm     54% 0.00 in meteobridge W/m2
00:34 46.0 °F 30.4 °F 30.10 in Calm     54% 0.00 in meteobridge W/m2
00:39 46.0 °F 30.4 °F 30.11 in Calm     54% 0.00 in meteobridge W/m2
00:44 46.0 °F 30.4 °F 30.11 in Calm     54% 0.00 in meteobridge W/m2
00:49 46.0 °F 30.4 °F 30.11 in Calm     54% 0.00 in meteobridge W/m2
00:54 45.9 °F 30.2 °F 30.11 in Calm     54% 0.00 in meteobridge W/m2
00:59 45.7 °F 30.4 °F 30.11 in Calm     55% 0.00 in meteobridge W/m2
01:04 45.5 °F 30.2 °F 30.11 in Calm     55% 0.00 in meteobridge W/m2
01:09 45.3 °F 30.0 °F 30.11 in Calm     55% 0.00 in meteobridge W/m2
01:14 45.1 °F 30.0 °F 30.11 in Calm     55% 0.00 in meteobridge W/m2
01:19 45.1 °F 30.0 °F 30.11 in Calm     55% 0.00 in meteobridge W/m2
01:24 45.0 °F 29.8 °F 30.11 in Calm     55% 0.00 in meteobridge W/m2
01:29 44.8 °F 29.7 °F 30.11 in Calm     55% 0.00 in meteobridge W/m2
01:34 44.6 °F 29.8 °F 30.11 in Calm     56% 0.00 in meteobridge W/m2
01:39 44.6 °F 29.5 °F 30.11 in Calm     55% 0.00 in meteobridge W/m2
01:44 44.4 °F 29.3 °F 30.11 in Calm     55% 0.00 in meteobridge W/m2
01:49 44.2 °F 29.5 °F 30.11 in Calm     56% 0.00 in meteobridge W/m2
01:54 44.2 °F 29.1 °F 30.11 in Calm     55% 0.00 in meteobridge W/m2
01:59 44.2 °F 29.1 °F 30.11 in Calm     55% 0.00 in meteobridge W/m2
02:04 44.1 °F 28.9 °F 30.11 in Calm     55% 0.00 in meteobridge W/m2
02:09 44.1 °F 28.9 °F 30.11 in Calm     55% 0.00 in meteobridge W/m2
02:14 43.9 °F 29.1 °F 30.11 in Calm     56% 0.00 in meteobridge W/m2
02:19 43.9 °F 29.1 °F 30.11 in Calm     56% 0.00 in meteobridge W/m2
02:24 43.9 °F 29.1 °F 30.11 in Calm     56% 0.00 in meteobridge W/m2
02:29 43.5 °F 28.9 °F 30.11 in Calm     56% 0.00 in meteobridge W/m2
02:34 43.5 °F 28.9 °F 30.11 in Calm     56% 0.00 in meteobridge W/m2
02:39 43.5 °F 28.9 °F 30.11 in Calm     56% 0.00 in meteobridge W/m2
02:44 43.3 °F 28.8 °F 30.11 in Calm     56% 0.00 in meteobridge W/m2
02:49 43.3 °F 28.8 °F 30.11 in Calm     56% 0.00 in meteobridge W/m2
02:54 43.2 °F 28.6 °F 30.11 in Calm     56% 0.00 in meteobridge W/m2
02:59 43.2 °F 28.6 °F 30.11 in Calm     56% 0.00 in meteobridge W/m2
03:04 43.0 °F 28.4 °F 30.11 in Calm     56% 0.00 in meteobridge W/m2
03:08 43.0 °F 28.4 °F 30.11 in Calm     56% 0.00 in meteobridge W/m2
03:14 42.6 °F 28.0 °F 30.12 in Calm     56% 0.00 in meteobridge W/m2
03:19 42.6 °F 28.0 °F 30.11 in Calm     56% 0.00 in meteobridge W/m2
03:24 42.4 °F 27.9 °F 30.11 in Calm     56% 0.00 in meteobridge W/m2
03:29 42.4 °F 27.9 °F 30.11 in Calm     56% 0.00 in meteobridge W/m2
03:33 42.4 °F 27.9 °F 30.11 in Calm     56% 0.00 in meteobridge W/m2
03:38 42.3 °F 27.7 °F 30.12 in Calm     56% 0.00 in meteobridge W/m2
03:44 42.3 °F 27.7 °F 30.12 in Calm     56% 0.00 in meteobridge W/m2
03:49 42.3 °F 27.7 °F 30.12 in Calm     56% 0.00 in meteobridge W/m2
03:54 42.1 °F 27.5 °F 30.12 in Calm     56% 0.00 in meteobridge W/m2
03:59 41.9 °F 27.3 °F 30.11 in Calm     56% 0.00 in meteobridge W/m2
04:03 41.7 °F 27.1 °F 30.11 in Calm     56% 0.00 in meteobridge W/m2
04:07 41.7 °F 27.1 °F 30.11 in Calm     56% 0.00 in meteobridge W/m2
04:14 41.5 °F 27.0 °F 30.12 in Calm     56% 0.00 in meteobridge W/m2
04:19 41.5 °F 27.0 °F 30.12 in Calm     56% 0.00 in meteobridge W/m2
04:24 41.5 °F 27.0 °F 30.12 in Calm     56% 0.00 in meteobridge W/m2
04:28 41.5 °F 27.0 °F 30.11 in Calm     56% 0.00 in meteobridge W/m2
04:34 41.5 °F 27.0 °F 30.11 in Calm     56% 0.00 in meteobridge W/m2
04:37 41.4 °F 26.8 °F 30.11 in Calm     56% 0.00 in meteobridge W/m2
04:42 41.4 °F 26.8 °F 30.11 in Calm     56% 0.00 in meteobridge W/m2
04:48 41.4 °F 26.8 °F 30.11 in Calm     56% 0.00 in meteobridge W/m2
04:54 41.4 °F 26.8 °F 30.11 in Calm     56% 0.00 in meteobridge W/m2
04:59 41.4 °F 26.8 °F 30.12 in Calm     56% 0.00 in meteobridge W/m2
05:04 41.4 °F 26.8 °F 30.12 in Calm     56% 0.00 in meteobridge W/m2
05:09 41.2 °F 26.6 °F 30.12 in Calm     56% 0.00 in meteobridge W/m2
05:14 41.2 °F 26.6 °F 30.12 in Calm     56% 0.00 in meteobridge W/m2
05:19 41.2 °F 26.6 °F 30.13 in Calm     56% 0.00 in meteobridge W/m2
05:24 41.2 °F 26.6 °F 30.13 in Calm     56% 0.00 in meteobridge W/m2
05:28 41.0 °F 26.4 °F 30.13 in Calm     56% 0.00 in meteobridge W/m2
05:32 41.0 °F 26.4 °F 30.13 in Calm     56% 0.00 in meteobridge W/m2
05:39 41.0 °F 26.4 °F 30.13 in Calm     56% 0.00 in meteobridge W/m2
05:43 40.8 °F 26.4 °F 30.13 in Calm     56% 0.00 in meteobridge W/m2
05:48 40.8 °F 26.4 °F 30.13 in Calm     56% 0.00 in meteobridge W/m2
05:54 40.5 °F 26.1 °F 30.13 in Calm     56% 0.00 in meteobridge W/m2
05:58 40.5 °F 26.1 °F 30.13 in Calm     56% 0.00 in meteobridge W/m2
06:04 40.3 °F 26.2 °F 30.13 in Calm     57% 0.00 in meteobridge W/m2
06:09 40.3 °F 26.2 °F 30.13 in Calm     57% 0.00 in meteobridge W/m2
06:14 39.9 °F 25.9 °F 30.13 in Calm     57% 0.00 in meteobridge W/m2
06:19 39.9 °F 25.9 °F 30.14 in Calm     57% 0.00 in meteobridge W/m2
06:24 39.7 °F 25.7 °F 30.14 in Calm     57% 0.00 in meteobridge W/m2
06:29 39.7 °F 25.7 °F 30.14 in Calm     57% 0.00 in meteobridge W/m2
06:34 39.7 °F 25.7 °F 30.14 in Calm     57% 0.00 in meteobridge W/m2
06:39 39.6 °F 25.5 °F 30.14 in Calm     57% 0.00 in meteobridge W/m2
06:42 39.4 °F 25.3 °F 30.14 in Calm     57% 0.00 in meteobridge W/m2
06:49 39.4 °F 25.3 °F 30.14 in Calm     57% 0.00 in meteobridge W/m2
06:53 39.2 °F 25.2 °F 30.14 in Calm     57% 0.00 in meteobridge W/m2
06:59 39.0 °F 25.2 °F 30.14 in Calm     57% 0.00 in meteobridge W/m2
07:04 39.0 °F 25.2 °F 30.14 in Calm     57% 0.00 in meteobridge W/m2
07:09 38.8 °F 25.0 °F 30.14 in Calm     57% 0.00 in meteobridge W/m2
07:12 38.8 °F 25.0 °F 30.14 in Calm     57% 0.00 in meteobridge W/m2
07:16 38.8 °F 25.0 °F 30.14 in Calm     57% 0.00 in meteobridge W/m2
07:22 38.8 °F 25.0 °F 30.14 in Calm     57% 0.00 in meteobridge W/m2
07:29 38.8 °F 25.0 °F 30.14 in Calm     57% 0.00 in meteobridge W/m2
07:34 38.8 °F 25.0 °F 30.14 in Calm     57% 0.00 in meteobridge W/m2
07:39 39.0 °F 25.2 °F 30.14 in Calm     57% 0.00 in meteobridge W/m2
07:44 39.0 °F 25.2 °F 30.15 in Calm     57% 0.00 in meteobridge W/m2
07:49 39.2 °F 25.2 °F 30.15 in Calm     57% 0.00 in meteobridge W/m2
07:54 39.6 °F 25.2 °F 30.15 in Calm     56% 0.00 in meteobridge W/m2
07:59 39.7 °F 25.3 °F 30.15 in Calm     56% 0.00 in meteobridge W/m2
08:04 40.1 °F 25.7 °F 30.16 in Calm     56% 0.00 in meteobridge W/m2
08:08 40.5 °F 26.1 °F 30.16 in Calm     56% 0.00 in meteobridge W/m2
08:13 40.6 °F 26.2 °F 30.16 in Calm     56% 0.00 in meteobridge W/m2
08:19 40.8 °F 25.9 °F 30.16 in Calm     55% 0.00 in meteobridge W/m2
08:24 41.2 °F 26.2 °F 30.16 in Calm     55% 0.00 in meteobridge W/m2
08:29 41.4 °F 26.4 °F 30.16 in Calm     55% 0.00 in meteobridge W/m2
08:32 41.5 °F 26.6 °F 30.16 in Calm     55% 0.00 in meteobridge W/m2
08:38 42.1 °F 27.1 °F 30.17 in Calm     55% 0.00 in meteobridge W/m2
08:44 42.4 °F 27.0 °F 30.17 in Calm     54% 0.00 in meteobridge W/m2
08:47 42.6 °F 27.1 °F 30.17 in Calm     54% 0.00 in meteobridge W/m2
08:54 43.2 °F 27.7 °F 30.17 in Calm     54% 0.00 in meteobridge W/m2
08:58 43.7 °F 28.2 °F 30.16 in Calm     54% 0.00 in meteobridge W/m2
09:02 44.1 °F 28.4 °F 30.16 in Calm     54% 0.00 in meteobridge W/m2
09:08 45.0 °F 28.9 °F 30.17 in Calm     53% 0.00 in meteobridge W/m2
09:14 45.9 °F 29.7 °F 30.17 in Calm     53% 0.00 in meteobridge W/m2
09:17 46.4 °F 29.7 °F 30.17 in Calm     52% 0.00 in meteobridge W/m2
09:24 47.5 °F 30.7 °F 30.17 in Calm     52% 0.00 in meteobridge W/m2
09:29 48.0 °F 30.7 °F 30.16 in Calm     51% 0.00 in meteobridge W/m2
09:33 48.6 °F 31.3 °F 30.16 in Calm     51% 0.00 in meteobridge W/m2
09:39 49.6 °F 31.8 °F 30.16 in Calm     50% 0.00 in meteobridge W/m2
09:44 50.4 °F 32.4 °F 30.16 in Calm     50% 0.00 in meteobridge W/m2
09:47 50.9 °F 32.9 °F 30.16 in Calm     50% 0.00 in meteobridge W/m2
09:54 51.6 °F 33.1 °F 30.16 in Calm     49% 0.00 in meteobridge W/m2
09:58 52.2 °F 33.6 °F 30.16 in Calm     49% 0.00 in meteobridge W/m2
10:02 52.5 °F 34.0 °F 30.16 in Calm     49% 0.00 in meteobridge W/m2
10:09 53.1 °F 33.8 °F 30.16 in Calm     48% 0.00 in meteobridge W/m2
10:14 53.4 °F 34.2 °F 30.16 in Calm     48% 0.00 in meteobridge W/m2
10:18 54.1 °F 34.3 °F 30.16 in Calm     47% 0.00 in meteobridge W/m2
10:24 54.9 °F 35.1 °F 30.16 in Calm     47% 0.00 in meteobridge W/m2
10:28 55.4 °F 35.4 °F 30.16 in Calm     47% 0.00 in meteobridge W/m2
10:34 56.3 °F 35.8 °F 30.16 in Calm     46% 0.00 in meteobridge W/m2
10:38 56.7 °F 36.1 °F 30.16 in Calm     46% 0.00 in meteobridge W/m2
10:44 57.0 °F 36.0 °F 30.15 in Calm     45% 0.00 in meteobridge W/m2
10:46 56.8 °F 35.8 °F 30.15 in Calm     45% 0.00 in meteobridge W/m2
10:54 57.4 °F 37.9 °F 30.15 in Calm     48% 0.00 in meteobridge W/m2
10:58 57.7 °F 42.6 °F 30.15 in Calm     57% 0.00 in meteobridge W/m2
11:04 58.6 °F 50.7 °F 30.14 in Calm     75% 0.00 in meteobridge W/m2
11:09 59.5 °F 52.3 °F 30.15 in Calm     77% 0.00 in meteobridge W/m2
11:12 60.4 °F 52.9 °F 30.14 in Calm     76% 0.00 in meteobridge W/m2
11:19 61.3 °F 53.1 °F 30.14 in Calm     74% 0.00 in meteobridge W/m2
11:24 62.4 °F 51.8 °F 30.14 in Calm     68% 0.00 in meteobridge W/m2
11:29 63.1 °F 50.7 °F 30.14 in Calm     64% 0.00 in meteobridge W/m2
11:34 63.9 °F 50.2 °F 30.14 in Calm     61% 0.00 in meteobridge W/m2
11:39 64.6 °F 52.5 °F 30.13 in Calm     65% 0.00 in meteobridge W/m2
11:44 65.3 °F 50.5 °F 30.13 in Calm     59% 0.00 in meteobridge W/m2
11:49 65.8 °F 49.3 °F 30.13 in Calm     55% 0.00 in meteobridge W/m2
11:53 66.0 °F 49.8 °F 30.13 in Calm     56% 0.00 in meteobridge W/m2
11:59 66.7 °F 47.5 °F 30.12 in Calm     50% 0.00 in meteobridge W/m2
12:04 67.5 °F 46.0 °F 30.12 in Calm     46% 0.00 in meteobridge W/m2
12:09 67.8 °F 44.4 °F 30.12 in Calm     43% 0.00 in meteobridge W/m2
12:13 68.4 °F 45.0 °F 30.12 in Calm     43% 0.00 in meteobridge W/m2
12:18 68.5 °F 45.1 °F 30.11 in Calm     43% 0.00 in meteobridge W/m2
12:24 69.4 °F 49.5 °F 30.11 in Calm     49% 0.00 in meteobridge W/m2
12:29 69.6 °F 51.3 °F 30.11 in Calm     52% 0.00 in meteobridge W/m2
12:34 70.0 °F 51.6 °F 30.11 in Calm     52% 0.00 in meteobridge W/m2
12:37 70.0 °F 51.6 °F 30.11 in Calm     52% 0.00 in meteobridge W/m2
12:42 70.2 °F 50.7 °F 30.11 in Calm     50% 0.00 in meteobridge W/m2
12:48 70.3 °F 50.4 °F 30.10 in Calm     49% 0.00 in meteobridge W/m2
12:52 70.3 °F 49.6 °F 30.10 in Calm     48% 0.00 in meteobridge W/m2
12:59 70.5 °F 48.7 °F 30.10 in Calm     46% 0.00 in meteobridge W/m2
13:04 70.9 °F 49.1 °F 30.10 in Calm     46% 0.00 in meteobridge W/m2
13:09 70.9 °F 48.6 °F 30.10 in Calm     45% 0.00 in meteobridge W/m2
13:14 71.1 °F 47.5 °F 30.09 in Calm     43% 0.00 in meteobridge W/m2
13:16 71.2 °F 46.9 °F 30.09 in Calm     42% 0.00 in meteobridge W/m2
13:22 71.2 °F 48.2 °F 30.09 in Calm     44% 0.00 in meteobridge W/m2
13:28 71.1 °F 51.4 °F 30.09 in Calm     50% 0.00 in meteobridge W/m2
13:34 70.9 °F 49.6 °F 30.09 in Calm     47% 0.00 in meteobridge W/m2
13:39 70.5 °F 48.7 °F 30.08 in Calm     46% 0.00 in meteobridge W/m2
13:42 70.5 °F 49.3 °F 30.08 in Calm     47% 0.00 in meteobridge W/m2
13:49 70.0 °F 48.2 °F 30.08 in Calm     46% 0.00 in meteobridge W/m2
13:54 69.8 °F 50.4 °F 30.08 in Calm     50% 0.00 in meteobridge W/m2
13:59 69.6 °F 51.3 °F 30.09 in Calm     52% 0.00 in meteobridge W/m2
14:02 69.4 °F 51.1 °F 30.09 in Calm     52% 0.00 in meteobridge W/m2
14:08 69.1 °F 53.6 °F 30.09 in Calm     58% 0.00 in meteobridge W/m2
14:14 68.7 °F 52.0 °F 30.09 in Calm     55% 0.00 in meteobridge W/m2
14:18 68.7 °F 53.4 °F 30.09 in Calm     58% 0.00 in meteobridge W/m2
14:24 68.4 °F 53.1 °F 30.09 in Calm     58% 0.00 in meteobridge W/m2
14:29 68.2 °F 51.8 °F 30.09 in Calm     56% 0.00 in meteobridge W/m2
14:32 68.4 °F 54.0 °F 30.09 in Calm     60% 0.00 in meteobridge W/m2
14:38 68.2 °F 54.1 °F 30.09 in Calm     61% 0.00 in meteobridge W/m2
14:43 68.0 °F 54.0 °F 30.08 in Calm     61% 0.00 in meteobridge W/m2
14:47 67.8 °F 54.3 °F 30.08 in Calm     62% 0.00 in meteobridge W/m2
14:51 67.8 °F 54.0 °F 30.09 in Calm     61% 0.00 in meteobridge W/m2
14:59 67.6 °F 55.0 °F 30.09 in Calm     64% 0.00 in meteobridge W/m2
15:04 67.3 °F 55.9 °F 30.09 in Calm     67% 0.00 in meteobridge W/m2
15:09 66.9 °F 56.5 °F 30.10 in Calm     69% 0.00 in meteobridge W/m2
15:13 66.4 °F 55.9 °F 30.11 in Calm     69% 0.00 in meteobridge W/m2
15:19 65.7 °F 55.6 °F 30.11 in Calm     70% 0.00 in meteobridge W/m2
15:23 65.5 °F 55.4 °F 30.10 in Calm     70% 0.00 in meteobridge W/m2
15:29 64.8 °F 55.6 °F 30.11 in Calm     72% 0.01 in meteobridge W/m2
15:34 64.2 °F 55.8 °F 30.11 in Calm     74% 0.01 in meteobridge W/m2
15:39 63.7 °F 55.6 °F 30.11 in Calm     75% 0.01 in meteobridge W/m2
15:44 63.0 °F 54.5 °F 30.11 in Calm     74% 0.01 in meteobridge W/m2
15:49 62.2 °F 53.4 °F 30.12 in Calm     73% 0.03 in meteobridge W/m2
15:52 61.9 °F 53.1 °F 30.12 in Calm     73% 0.03 in meteobridge W/m2
15:58 61.2 °F 51.3 °F 30.13 in Calm     70% 0.04 in meteobridge W/m2
16:04 60.4 °F 49.1 °F 30.12 in Calm     66% 0.04 in meteobridge W/m2
16:09 60.3 °F 48.0 °F 30.12 in Calm     64% 0.05 in meteobridge W/m2
16:13 59.7 °F 47.1 °F 30.11 in Calm     63% 0.05 in meteobridge W/m2
16:16 59.5 °F 46.9 °F 30.11 in Calm     63% 0.06 in meteobridge W/m2
16:24 58.8 °F 45.0 °F 30.10 in Calm     60% 0.07 in meteobridge W/m2
16:29 58.6 °F 43.9 °F 30.10 in Calm     58% 0.06 in meteobridge W/m2
16:34 58.5 °F 43.7 °F 30.09 in Calm     58% 0.06 in meteobridge W/m2
16:39 58.1 °F 43.0 °F 30.08 in Calm     57% 0.06 in meteobridge W/m2
16:44 57.7 °F 42.6 °F 30.07 in Calm     57% 0.07 in meteobridge W/m2
16:47 57.4 °F 42.3 °F 30.06 in Calm     57% 0.06 in meteobridge W/m2
16:54 56.7 °F 41.2 °F 30.05 in Calm     56% 0.05 in meteobridge W/m2
16:59 56.3 °F 40.8 °F 30.04 in Calm     56% 0.04 in meteobridge W/m2
17:04 55.9 °F 39.9 °F 30.04 in Calm     55% 0.04 in meteobridge W/m2
17:09 56.1 °F 39.2 °F 30.06 in Calm     53% 0.03 in meteobridge W/m2
17:14 56.1 °F 38.7 °F 30.06 in Calm     52% 0.04 in meteobridge W/m2
17:17 56.1 °F 38.7 °F 30.06 in Calm     52% 0.03 in meteobridge W/m2
17:23 56.1 °F 38.3 °F 30.05 in Calm     51% 0.02 in meteobridge W/m2
17:27 56.1 °F 37.8 °F 30.06 in Calm     50% 0.02 in meteobridge W/m2
17:33 56.3 °F 37.9 °F 30.06 in Calm     50% 0.02 in meteobridge W/m2
17:39 56.5 °F 37.6 °F 30.07 in Calm     49% 0.01 in meteobridge W/m2
17:44 56.3 °F 37.4 °F 30.07 in Calm     49% 0.01 in meteobridge W/m2
17:49 56.1 °F 37.2 °F 30.07 in Calm     49% 0.01 in meteobridge W/m2
17:54 55.9 °F 37.6 °F 30.08 in Calm     50% 0.01 in meteobridge W/m2
17:59 55.6 °F 37.8 °F 30.08 in Calm     51% 0.01 in meteobridge W/m2
18:04 55.2 °F 37.4 °F 30.08 in Calm     51% 0.01 in meteobridge W/m2
18:09 54.9 °F 37.6 °F 30.09 in Calm     52% 0.01 in meteobridge W/m2
18:14 54.7 °F 37.4 °F 30.09 in Calm     52% 0.00 in meteobridge W/m2
18:17 54.5 °F 37.2 °F 30.09 in Calm     52% 0.00 in meteobridge W/m2
18:24 54.3 °F 37.0 °F 30.09 in Calm     52% 0.00 in meteobridge W/m2
18:29 54.1 °F 36.9 °F 30.10 in Calm     52% 0.00 in meteobridge W/m2
18:34 54.0 °F 36.7 °F 30.10 in Calm     52% 0.00 in meteobridge W/m2
18:37 54.0 °F 36.7 °F 30.10 in Calm     52% 0.00 in meteobridge W/m2
18:43 54.0 °F 36.7 °F 30.10 in Calm     52% 0.00 in meteobridge W/m2
18:46 53.8 °F 36.1 °F 30.10 in Calm     51% 0.00 in meteobridge W/m2
18:59 53.6 °F 36.0 °F 30.10 in Calm     51% 0.00 in meteobridge W/m2
19:04 53.4 °F 35.8 °F 30.11 in Calm     51% 0.00 in meteobridge W/m2
19:09 53.2 °F 35.6 °F 30.11 in Calm     51% 0.00 in meteobridge W/m2
19:14 53.1 °F 35.4 °F 30.11 in Calm     51% 0.00 in meteobridge W/m2
19:19 53.1 °F 35.4 °F 30.10 in Calm     51% 0.00 in meteobridge W/m2
19:24 53.1 °F 35.4 °F 30.10 in Calm     51% 0.00 in meteobridge W/m2
19:29 53.2 °F 35.1 °F 30.10 in Calm     50% 0.00 in meteobridge W/m2
19:34 53.2 °F 35.1 °F 30.09 in Calm     50% 0.00 in meteobridge W/m2
19:39 53.1 °F 34.9 °F 30.09 in Calm     50% 0.00 in meteobridge W/m2
19:44 53.1 °F 34.9 °F 30.09 in Calm     50% 0.00 in meteobridge W/m2
19:48 53.1 °F 34.9 °F 30.09 in Calm     50% 0.00 in meteobridge W/m2
19:54 53.1 °F 34.9 °F 30.09 in Calm     50% 0.00 in meteobridge W/m2
19:59 53.1 °F 34.9 °F 30.09 in Calm     50% 0.00 in meteobridge W/m2
20:04 53.1 °F 34.9 °F 30.10 in Calm     50% 0.00 in meteobridge W/m2
20:09 53.1 °F 34.3 °F 30.10 in Calm     49% 0.00 in meteobridge W/m2
20:11 53.1 °F 34.3 °F 30.10 in Calm     49% 0.00 in meteobridge W/m2
20:18 53.1 °F 34.3 °F 30.10 in Calm     49% 0.00 in meteobridge W/m2
20:24 53.1 °F 34.3 °F 30.10 in Calm     49% 0.00 in meteobridge W/m2
20:26 53.1 °F 34.3 °F 30.10 in Calm     49% 0.00 in meteobridge W/m2
20:34 53.1 °F 34.3 °F 30.11 in Calm     49% 0.00 in meteobridge W/m2
20:39 53.1 °F 34.3 °F 30.11 in Calm     49% 0.00 in meteobridge W/m2
20:44 53.2 °F 34.5 °F 30.11 in Calm     49% 0.00 in meteobridge W/m2
20:48 53.2 °F 34.0 °F 30.11 in Calm     48% 0.00 in meteobridge W/m2
20:53 53.2 °F 34.5 °F 30.11 in Calm     49% 0.00 in meteobridge W/m2
20:59 53.1 °F 34.3 °F 30.11 in Calm     49% 0.00 in meteobridge W/m2
21:04 53.1 °F 33.8 °F 30.11 in Calm     48% 0.00 in meteobridge W/m2
21:09 53.1 °F 33.8 °F 30.12 in Calm     48% 0.00 in meteobridge W/m2
21:14 53.1 °F 33.8 °F 30.12 in Calm     48% 0.00 in meteobridge W/m2
21:19 53.1 °F 33.8 °F 30.12 in Calm     48% 0.00 in meteobridge W/m2
21:24 53.1 °F 33.8 °F 30.13 in Calm     48% 0.00 in meteobridge W/m2
21:27 53.1 °F 33.8 °F 30.12 in Calm     48% 0.00 in meteobridge W/m2
21:32 53.1 °F 33.8 °F 30.12 in Calm     48% 0.00 in meteobridge W/m2
21:37 53.1 °F 33.8 °F 30.12 in Calm     48% 0.00 in meteobridge W/m2
21:44 53.1 °F 33.8 °F 30.13 in Calm     48% 0.00 in meteobridge W/m2
21:49 53.1 °F 33.8 °F 30.14 in Calm     48% 0.00 in meteobridge W/m2
21:54 53.1 °F 33.8 °F 30.14 in Calm     48% 0.00 in meteobridge W/m2
21:59 53.1 °F 33.8 °F 30.14 in Calm     48% 0.00 in meteobridge W/m2
22:04 53.2 °F 34.0 °F 30.14 in Calm     48% 0.00 in meteobridge W/m2
22:09 53.2 °F 34.0 °F 30.14 in Calm     48% 0.00 in meteobridge W/m2
22:14 53.4 °F 34.2 °F 30.14 in Calm     48% 0.00 in meteobridge W/m2
22:15 53.4 °F 34.2 °F 30.14 in Calm     48% 0.00 in meteobridge W/m2
22:21 53.4 °F 34.2 °F 30.14 in Calm     48% 0.00 in meteobridge W/m2
22:29 53.4 °F 34.2 °F 30.14 in Calm     48% 0.00 in meteobridge W/m2
22:33 53.6 °F 34.3 °F 30.14 in Calm     48% 0.00 in meteobridge W/m2
22:39 53.6 °F 34.3 °F 30.15 in Calm     48% 0.00 in meteobridge W/m2
22:43 53.6 °F 34.3 °F 30.14 in Calm     48% 0.00 in meteobridge W/m2
22:48 53.8 °F 34.0 °F 30.14 in Calm     47% 0.00 in meteobridge W/m2
22:54 54.0 °F 34.2 °F 30.15 in Calm     47% 0.00 in meteobridge W/m2
22:56 54.0 °F 34.2 °F 30.15 in Calm     47% 0.00 in meteobridge W/m2
23:04 54.0 °F 34.2 °F 30.15 in Calm     47% 0.00 in meteobridge W/m2
23:09 53.8 °F 34.0 °F 30.15 in Calm     47% 0.00 in meteobridge W/m2
23:14 53.8 °F 34.0 °F 30.14 in Calm     47% 0.00 in meteobridge W/m2
23:19 53.8 °F 34.0 °F 30.14 in Calm     47% 0.00 in meteobridge W/m2
23:21 53.8 °F 34.0 °F 30.14 in Calm     47% 0.00 in meteobridge W/m2
23:29 53.8 °F 34.0 °F 30.14 in Calm     47% 0.00 in meteobridge W/m2
23:34 53.8 °F 34.0 °F 30.14 in Calm     47% 0.00 in meteobridge W/m2
23:39 54.0 °F 34.2 °F 30.14 in Calm     47% 0.00 in meteobridge W/m2
23:40 54.0 °F 34.2 °F 30.14 in Calm     47% 0.00 in meteobridge W/m2
23:49 54.0 °F 34.2 °F 30.13 in Calm     47% 0.00 in meteobridge W/m2
23:53 54.0 °F 34.2 °F 30.13 in Calm     47% 0.00 in meteobridge W/m2
23:58 54.0 °F 34.2 °F 30.13 in Calm     47% 0.00 in meteobridge W/m2
EllijayWeather
Compliments of Weather Underground - 2.5 mb